Location: Newark
(25.0000°N, 73.5000°E)
Time: 00:54:40
(UTC+00:00)

Vanguard 1 - Visible Passes

Search period start: 31 July 2021 00:00
Search period end: 10 August 2021 00:00
Orbit: 651 x 3831 km, 34.2° (Epoch: 29 July)

Date Brightness Start Highest point End Pass type
(mag) Time Alt. Az. Time Alt. Az. Time Alt. Az.
31 Jul 14.1 15:38:29 10° WSW 15:46:51 14° SW 15:56:05 10° SSW visible
02 Aug 13.8 13:51:53 10° W 14:03:33 24° SW 14:19:17 10° S visible
03 Aug 14.0 14:15:43 10° WSW 14:25:27 17° SW 14:37:30 10° S visible
04 Aug 14.2 14:43:00 10° SW 14:47:35 11° SW 14:52:36 10° SSW visible
07 Aug 12.4 23:32:34 10° S 23:36:31 14° SSE 23:39:43 10° ESE visible
08 Aug 11.9 23:51:36 10° SSW 23:57:52 22° SSE 00:02:17 10° ESE visible
